[[{"header":{"parameterUnit":"m.s-1","parameterCategory":1,"la1":30.2991,"la2":30.254,"lo1":-89.0895,"lo2":-89.0444,"dy":0.0017,"dx":0.0017,"nx":28,"ny":28,"refTime":"2023-09-04T03:00:00:Z","depth":0,"parameterNumber":2,"parameterNumberName":"U-component_of_WINDS"},"data":[0,0,0,0,0,0,0,0,0,0,0,0,0,0,0,0,0,0,0,0,0,0,0,0,0,0,0,0,0,0,0,0,0,0,0,0,0,0,0,0,0,0,0,0,0,0,0,0,0,0,0,0,0,0,0,0,0,0,-3.1485,-3.1485,0,-3.1434,-3.1434,-3.1433,-3.1374,-3.1373,-3.1372,-3.1371,-3.1319,-3.1318,-3.1318,0,0,0,0,0,0,0,0,0,0,0,0,0,-3.1533,-3.1533,-3.1485,-3.1485,-3.1484,-3.1434,-3.1434,-3.1433,-3.1374,-3.1373,-3.1372,-3.1371,-3.1319,-3.1318,-3.1318,0,0,0,0,0,0,0,0,0,0,0,0,0,-3.15,-3.1532,-3.1485,-3.1449,-3.1445,-3.1434,-3.1434,-3.1433,-3.1374,-3.1373,-3.1372,-3.137,-3.1319,-3.1318,-3.1317,-3.1339,0,0,-3.1315,-3.1314,0,0,0,0,0,0,0,0,-3.1502,-3.1499,-3.1455,-3.1451,-3.1447,-3.1409,-3.1431,-3.1401,-3.1375,-3.1401,-3.1371,-3.137,-3.135,-3.1346,-3.134,-3.1336,-3.1334,-3.1315,-3.1314,-3.1314,-3.1314,0,0,0,0,0,0,0,-3.1505,-3.1501,-3.1465,-3.1454,-3.1449,-3.1435,-3.1429,-3.1425,-3.1384,-3.1399,-3.1394,-3.1389,-3.1347,-3.1341,-3.1338,-3.1333,-3.1315,-3.1314,-3.1313,-3.1313,-3.1347,-3.1348,0,0,0,0,0,0,-3.1512,-3.1503,-3.1467,-3.1463,-3.1472,-3.1436,-3.1429,-3.1423,-3.1383,-3.1376,-3.139,-3.1387,-3.1343,-3.1339,-3.1336,-3.1359,-3.1314,-3.1313,-3.1313,-3.1346,-3.1347,-3.1349,0,0,0,0,0,0,-3.1514,-3.151,-3.1469,-3.1482,-3.1476,-3.1436,-3.143,-3.1422,-3.1415,-3.1377,-3.1369,-3.1391,-3.1342,-3.1337,-3.1339,-3.1356,-3.1313,-3.1312,-3.1344,-3.1346,-3.1348,-3.1405,0,0,0,0,0,0,-3.1515,-3.1511,-3.1518,-3.1483,-3.1475,-3.1472,-3.1431,-3.1422,-3.1414,-3.1409,-3.1376,-3.1369,-3.134,-3.1341,-3.1338,-3.1354,-3.1311,-3.1342,-3.1345,-3.1347,-3.1401,-3.1409,-3.1415,0,0,0,0,0,-3.1517,-3.1535,-3.1518,-3.1514,-3.1483,-3.1473,-3.1469,-3.1436,-3.1416,-3.1423,-3.1399,-3.137,-3.1355,-3.1341,-3.1338,-3.1354,-3.1341,-3.1344,-3.1347,-3.1398,-3.1407,-3.1415,0,0,0,0,0,0,-3.1572,-3.153,-3.151,-3.1518,-3.15,-3.1463,-3.1471,-3.1446,-3.1433,-3.1429,-3.1388,-3.1381,-3.1388,-3.1372,-3.1357,-3.1374,-3.1344,-3.1347,-3.1384,-3.1392,-3.1399,-3.1402,-3.1311,0,0,0,0,0,-3.1586,-3.1581,-3.1544,-3.1554,-3.1546,-3.1511,-3.1505,-3.1481,-3.1461,-3.1453,-3.1428,-3.141,-3.1401,-3.1396,-3.1386,-3.14,-3.1392,-3.1409,-3.1416,-3.1422,-3.1424,-3.1432,-3.1439,-3.1359,-3.1359,-3.1359,0,0,-3.1612,-3.1589,-3.1588,-3.1565,-3.1548,-3.1544,-3.1504,-3.1502,-3.1499,-3.1452,-3.1452,-3.1435,-3.1411,-3.142,-3.1422,-3.1406,-3.1445,-3.1426,-3.1431,-3.143,-3.1436,-3.1443,-3.145,-3.1361,-3.1361,-3.1361,0,0,-3.1659,-3.1641,-3.1647,-3.1632,-3.1607,-3.1584,-3.1586,-3.1554,-3.1541,-3.1541,-3.1506,-3.1503,-3.1488,-3.1473,-3.1464,-3.1509,-3.1482,-3.1507,-3.1542,-3.155,-3.1556,-3.1562,-3.1578,-3.1584,-3.151,-3.151,-3.151,0,-3.1695,-3.1688,-3.1654,-3.1654,-3.1645,-3.1604,-3.1611,-3.1598,-3.1572,-3.1567,-3.155,-3.1532,-3.1514,-3.1518,-3.153,-3.1524,-3.1525,-3.1509,-3.1558,-3.1563,-3.1568,-3.1583,-3.1589,-3.1513,-3.1513,-3.1512,-3.1512,0,-3.1734,-3.173,-3.1738,-3.1714,-3.1707,-3.1711,-3.1678,-3.1675,-3.1653,-3.1632,-3.1633,-3.161,-3.1595,-3.1595,-3.1573,-3.1597,-3.1588,-3.1566,-3.1534,-3.1579,-3.1592,-3.1598,-3.1518,-3.1516,-3.1516,-3.1515,0,0,-3.181,-3.177,-3.1774,-3.1763,-3.1735,-3.1731,-3.1734,-3.172,-3.1718,-3.1703,-3.1704,-3.1695,-3.1674,-3.1664,-3.164,-3.1647,-3.1685,-3.1623,-3.1622,-3.1635,-3.1711,-3.1728,-3.1735,-3.1668,-3.1669,-3.167,-3.1713,0,-3.1851,-3.1853,-3.1824,-3.1834,-3.183,-3.1793,-3.1796,-3.1779,-3.1761,-3.1756,-3.1735,-3.1729,-3.1702,-3.1696,-3.1701,-3.1679,-3.1699,-3.1676,-3.1669,-3.1669,-3.1674,-3.1741,-3.1758,-3.18,-3.1718,-3.1719,-3.1719,0,-3.1898,-3.1886,-3.1896,-3.1869,-3.1867,-3.1869,-3.1855,-3.1851,-3.1832,-3.1818,-3.1808,-3.1782,-3.1784,-3.1757,-3.1759,-3.1744,-3.174,-3.1729,-3.173,-3.1727,-3.1696,-3.1739,-3.1812,-3.1818,-3.1727,-3.1727,-3.1726,0,-3.1953,-3.1939,-3.1944,-3.1936,-3.1905,-3.1908,-3.1895,-3.1875,-3.1869,-3.1858,-3.1854,-3.1843,-3.1836,-3.1828,-3.1801,-3.1783,-3.1807,-3.1776,-3.1795,-3.1796,-3.18,-3.18,-3.1873,-3.18,-3.18,-3.18,-3.1799,0,-3.2001,-3.2008,-3.1968,-3.1971,-3.1979,-3.1946,-3.1955,-3.1939,-3.1922,-3.1922,-3.1889,-3.189,-3.1853,-3.185,-3.1829,-3.1834,-3.1832,-3.1821,-3.1815,-3.1823,-3.1824,-3.1819,-3.1815,-3.1801,-3.1801,-3.1801,-3.18,0,-3.2062,-3.2036,-3.2038,-3.2009,-3.2003,-3.201,-3.1985,-3.1987,-3.1968,-3.1968,-3.1966,-3.1935,-3.193,-3.1902,-3.189,-3.1876,-3.1889,-3.1877,-3.1895,-3.1891,-3.1911,-3.191,-3.1982,-3.199,-3.1913,-3.1914,-3.1914,0,-3.2094,-3.2099,-3.2071,-3.2069,-3.2058,-3.2054,-3.2048,-3.2018,-3.2013,-3.1994,-3.1999,-3.1991,-3.1983,-3.1976,-3.1953,-3.1945,-3.1932,-3.1958,-3.193,-3.1939,-3.1932,-3.1932,-3.1932,-3.1964,-3.1965,-3.1965,-3.1966,0,-3.2152,-3.214,-3.2133,-3.2122,-3.2117,-3.2107,-3.2095,-3.2095,-3.2061,-3.2058,-3.2053,-3.2047,-3.2036,-3.2029,-3.2017,-3.2004,-3.198,-3.1976,-3.1979,-3.1987,-3.1997,-3.1992,-3.191,-3.1973,-3.1973,-3.1972,-3.1972,-3.1971,-3.2199,-3.2203,-3.2184,-3.2178,-3.2167,-3.2157,-3.2158,-3.2139,-3.2134,-3.2123,-3.2106,-3.2103,-3.2086,-3.2067,-3.2057,-3.2055,-3.2041,-3.2047,-3.2048,-3.205,-3.2054,-3.1999,-3.2053,-3.2053,-3.2053,-3.2052,-3.2052,0,-3.2256,-3.2243,-3.2238,-3.2223,-3.2219,-3.2198,-3.2185,-3.2183,-3.2181,-3.2167,-3.2161,-3.2156,-3.2149,-3.2127,-3.2119,-3.2122,-3.2111,-3.2121,-3.2119,-3.2117,-3.2067,-3.2064,-3.213,-3.213,-3.213,-3.213,-3.213,-3.213,-3.2285,-3.229,-3.2275,-3.2275,-3.2262,-3.2259,-3.2253,-3.2245,-3.2234,-3.223,-3.2225,-3.2211,-3.2194,-3.2185,-3.2179,-3.2173,-3.2171,-3.2185,-3.2175,-3.2128,-3.212,-3.2113,-3.211,-3.2185,-3.2185,-3.2225,-3.2225,-3.2226]},{"header":{"parameterUnit":"m.s-1","parameterCategory":1,"la1":30.2991,"la2":30.254,"lo1":-89.0895,"lo2":-89.0444,"dy":0.0017,"dx":0.0017,"nx":28,"ny":28,"refTime":"2023-09-04T03:00:00:Z","depth":0,"parameterNumber":3,"parameterNumberName":"V-component_of_WINDS"},"data":[0,0,0,0,0,0,0,0,0,0,0,0,0,0,0,0,0,0,0,0,0,0,0,0,0,0,0,0,0,0,0,0,0,0,0,0,0,0,0,0,0,0,0,0,0,0,0,0,0,0,0,0,0,0,0,0,0,0,2.6628,2.6628,0,2.6657,2.6657,2.6658,2.6718,2.6719,2.6721,2.6722,2.6748,2.6748,2.6747,0,0,0,0,0,0,0,0,0,0,0,0,0,2.6622,2.6621,2.6628,2.6628,2.6629,2.6657,2.6657,2.6658,2.6718,2.6719,2.6721,2.6722,2.6748,2.6748,2.6747,0,0,0,0,0,0,0,0,0,0,0,0,0,2.6635,2.6621,2.6628,2.6662,2.6666,2.6657,2.6657,2.6658,2.6718,2.6719,2.6721,2.6723,2.6748,2.6748,2.6747,2.6707,0,0,2.6745,2.6745,0,0,0,0,0,0,0,0,2.6634,2.6635,2.6657,2.666,2.6664,2.6686,2.6665,2.6674,2.6717,2.6698,2.6722,2.6724,2.6726,2.6727,2.6728,2.6708,2.6709,2.6745,2.6745,2.6745,2.6744,0,0,0,0,0,0,0,2.6633,2.6634,2.6639,2.6657,2.6661,2.6675,2.6679,2.6667,2.6701,2.67,2.6704,2.6707,2.6728,2.6729,2.6729,2.6709,2.6745,2.6745,2.6744,2.6744,2.6657,2.6655,0,0,0,0,0,0,2.6628,2.6633,2.6638,2.664,2.6653,2.6674,2.6678,2.6677,2.6701,2.6707,2.6705,2.671,2.6729,2.673,2.6731,2.6685,2.6745,2.6744,2.6744,2.6659,2.6657,2.6655,0,0,0,0,0,0,2.6627,2.6627,2.6637,2.6638,2.664,2.6672,2.667,2.6676,2.6678,2.6706,2.6712,2.67,2.6731,2.6732,2.6712,2.6687,2.6744,2.6743,2.6661,2.6658,2.6656,2.6593,0,0,0,0,0,0,2.6627,2.6627,2.6612,2.6637,2.664,2.6619,2.6668,2.6676,2.6677,2.6683,2.6703,2.6708,2.6732,2.6713,2.6712,2.6687,2.6743,2.6664,2.666,2.6657,2.6597,2.6588,2.658,0,0,0,0,0,2.6626,2.6593,2.6611,2.6612,2.6623,2.6618,2.6619,2.6649,2.6674,2.666,2.6678,2.6707,2.669,2.6711,2.671,2.6684,2.6666,2.6661,2.6657,2.6601,2.659,2.658,0,0,0,0,0,0,2.6563,2.6597,2.6618,2.6591,2.6601,2.6628,2.661,2.6636,2.6638,2.6644,2.668,2.6684,2.666,2.667,2.6693,2.6646,2.6682,2.6678,2.664,2.663,2.6621,2.6619,2.6742,0,0,0,0,0,2.6546,2.654,2.657,2.6543,2.6547,2.6578,2.6577,2.6599,2.661,2.6615,2.6631,2.664,2.6637,2.6634,2.6633,2.6599,2.6604,2.6581,2.6573,2.6566,2.6561,2.6544,2.6534,2.6641,2.6641,2.6641,0,0,2.6511,2.6528,2.6522,2.6531,2.6541,2.6534,2.6581,2.657,2.6565,2.6613,2.6596,2.6609,2.6621,2.6595,2.6584,2.6603,2.6533,2.656,2.6554,2.6553,2.6539,2.6528,2.6519,2.6638,2.6638,2.6639,0,0,2.6442,2.6455,2.6435,2.6445,2.6461,2.6481,2.6476,2.6499,2.651,2.6494,2.653,2.6523,2.6517,2.6524,2.6527,2.6462,2.6489,2.6461,2.6416,2.6399,2.6391,2.6384,2.636,2.6352,2.6456,2.6456,2.6456,0,2.6396,2.6387,2.6421,2.6409,2.6412,2.6456,2.6435,2.6443,2.6456,2.6457,2.6478,2.6472,2.6483,2.6459,2.6443,2.6444,2.6439,2.6458,2.639,2.6383,2.6376,2.6354,2.6346,2.6453,2.6453,2.6453,2.6454,0,2.6329,2.6322,2.6304,2.6318,2.6318,2.6302,2.6333,2.6329,2.6351,2.6369,2.6353,2.6368,2.6371,2.6367,2.6388,2.6346,2.6357,2.6383,2.642,2.6362,2.6342,2.6334,2.6447,2.6449,2.645,2.6451,0,0,2.6221,2.6255,2.6247,2.6254,2.6275,2.627,2.6255,2.6259,2.6255,2.6263,2.6251,2.6246,2.627,2.6274,2.6296,2.6281,2.6229,2.631,2.631,2.6294,2.6183,2.6163,2.6153,2.6247,2.6246,2.6244,2.6182,0,2.6158,2.6136,2.6166,2.6137,2.6131,2.6173,2.616,2.6171,2.6188,2.6184,2.6202,2.6197,2.623,2.6233,2.622,2.6238,2.6207,2.6243,2.6236,2.6235,2.6231,2.6142,2.6121,2.6061,2.6174,2.6173,2.6172,0,2.608,2.6086,2.6056,2.608,2.6078,2.6066,2.6072,2.6069,2.6082,2.6095,2.6099,2.6126,2.6113,2.6149,2.6131,2.6154,2.6153,2.6161,2.616,2.616,2.62,2.614,2.6043,2.6034,2.616,2.6161,2.6162,0,2.6004,2.6004,2.5987,2.5992,2.6018,2.6009,2.6019,2.6034,2.6035,2.6039,2.604,2.6043,2.6044,2.6045,2.6072,2.6096,2.6051,2.6089,2.606,2.606,2.6048,2.6049,2.595,2.6048,2.6048,2.6048,2.6048,0,2.593,2.591,2.5953,2.5942,2.5921,2.5956,2.5934,2.5949,2.5962,2.5954,2.599,2.5982,2.6019,2.6014,2.6035,2.6016,2.6017,2.6026,2.6032,2.6023,2.6022,2.6022,2.6027,2.6046,2.6046,2.6047,2.6047,0,2.5841,2.587,2.5853,2.588,2.5886,2.587,2.5892,2.5883,2.5902,2.5892,2.5891,2.5921,2.5917,2.5945,2.5946,2.596,2.5931,2.5944,2.5927,2.5931,2.5901,2.5903,2.5798,2.5786,2.5892,2.5891,2.589,0,2.5792,2.5778,2.5803,2.5801,2.581,2.5806,2.5807,2.5841,2.584,2.5855,2.5843,2.5843,2.5845,2.5837,2.5858,2.5859,2.5872,2.5835,2.5872,2.5863,2.5871,2.5871,2.587,2.5827,2.5826,2.5825,2.5824,0,2.5701,2.5716,2.5716,2.5722,2.5722,2.5728,2.5736,2.5732,2.5768,2.5766,2.5763,2.5764,2.5766,2.5765,2.5771,2.578,2.5808,2.5812,2.5806,2.5796,2.5786,2.5791,2.5906,2.5814,2.5815,2.5816,2.5816,2.5817,2.563,2.562,2.5637,2.5636,2.5646,2.5652,2.5645,2.5664,2.5663,2.5668,2.5688,2.5681,2.5695,2.5705,2.5712,2.5707,2.5725,2.5715,2.5713,2.571,2.5704,2.5788,2.5708,2.5709,2.5709,2.5709,2.5709,0,2.5541,2.5554,2.5554,2.5564,2.5563,2.5591,2.5601,2.5598,2.5593,2.5604,2.5605,2.5602,2.5601,2.5622,2.5624,2.5616,2.5628,2.5615,2.5616,2.5618,2.5689,2.5694,2.5605,2.5605,2.5605,2.5605,2.5605,2.5605,2.5495,2.5479,2.5496,2.5485,2.5498,2.5493,2.5496,2.5502,2.5511,2.5506,2.5506,2.5521,2.5536,2.5539,2.5539,2.5545,2.5544,2.5526,2.5537,2.5602,2.5613,2.5622,2.5628,2.5526,2.5526,2.5466,2.5466,2.5465]}]]